KI5NYZ Weather Reports


Display with metric or nautical units.
time (UTC)temp
F
wind
direction
speed
MPH
gust
MPH
rain 1hr
in
rain 24hr
in
rain mn
in
humidity
%
barometer
mb
20260508165521 72 254 6.0 17.0 0.00 0.00 0.00 61 1013.0
20260508164521 71 225 4.0 14.0 0.00 0.00 0.00 62 1013.1
20260508163601 71 233 6.0 15.0 0.00 0.00 0.00 64 1013.2
20260508162518 69 221 5.0 13.0 0.00 0.00 0.00 67 1013.4
20260508161521 68 224 3.0 8.0 0.00 0.00 0.00 69 1013.4
20260508160519 68 237 4.0 10.0 0.00 0.00 0.00 68 1013.5
20260508155521 67 239 3.0 6.0 0.00 0.00 0.00 73 1013.7
20260508154520 67 234 3.0 11.0 0.00 0.00 0.00 73 1013.7
20260508153519 65 233 3.0 7.0 0.00 0.00 0.00 75 1013.8
20260508152519 65 242 6.0 12.0 0.00 0.00 0.00 76 1013.9
20260508151600 64 247 8.0 12.0 0.00 0.00 0.00 79 1014.0
20260508150519 64 244 8.0 11.0 0.00 0.00 0.00 79 1014.0
20260508145520 63 233 8.0 13.0 0.00 0.00 0.00 80 1013.9
20260508144520 63 210 4.0 10.0 0.00 0.00 0.00 80 1014.0
20260508143541 63 221 5.0 10.0 0.00 0.00 0.00 81 1014.1
20260508142540 63 231 6.0 11.0 0.00 0.00 0.00 81 1014.2
20260508141520 63 227 5.0 11.0 0.00 0.00 0.00 80 1014.1
20260508140520 62 206 3.0 6.0 0.00 0.00 0.00 81 1014.0
20260508135521 61 229 3.0 7.0 0.00 0.00 0.00 83 1014.0
20260508134543 60 204 2.0 5.0 0.00 0.00 0.00 84 1014.1
20260508133522 60 200 2.0 5.0 0.00 0.00 0.00 84 1014.0
20260508132521 60 202 3.0 6.0 0.00 0.00 0.00 83 1014.1
20260508131523 60 194 2.0 5.0 0.00 0.00 0.00 83 1014.0
20260508130542 60 205 2.0 5.0 0.00 0.00 0.00 83 1013.9
20260508125520 60 219 3.0 7.0 0.00 0.00 0.00 83 1013.8
20260508124522 59 207 1.0 4.0 0.00 0.00 0.00 83 1013.7
20260508123521 59 213 1.0 3.0 0.00 0.00 0.00 83 1013.6
20260508122519 59 206 1.0 4.0 0.00 0.00 0.00 84 1013.5
20260508121539 58 218 1.0 4.0 0.00 0.00 0.00 84 1013.6
20260508120520 58 237 1.0 3.0 0.00 0.00 0.00 85 1013.6
20260508115521 58 231 2.0 3.0 0.00 0.00 0.00 85 1013.5
20260508114522 58 234 2.0 4.0 0.00 0.00 0.00 85 1013.5
20260508113519 58 225 3.0 4.0 0.00 0.00 0.00 85 1013.6
20260508112524 57 216 1.0 3.0 0.00 0.00 0.00 85 1013.6
20260508111522 57 203 1.0 4.0 0.00 0.00 0.00 85 1013.6
20260508110522 57 211 2.0 4.0 0.00 0.00 0.00 85 1013.6
20260508105520 56 232 2.0 5.0 0.00 0.00 0.00 86 1013.6
20260508104521 56 234 3.0 4.0 0.00 0.00 0.00 86 1013.7
20260508103520 55 221 2.0 4.0 0.00 0.00 0.00 87 1013.6
20260508102523 55 261 2.0 4.0 0.00 0.00 0.00 87 1013.5
20260508101521 53 233 2.0 4.0 0.00 0.00 0.00 89 1013.6
20260508100523 52 253 0.0 2.0 0.00 0.00 0.00 90 1013.7
20260508095521 52 220 1.0 2.0 0.00 0.00 0.00 89 1013.5
20260508094521 52 200 1.0 3.0 0.00 0.00 0.00 87 1013.5
20260508093521 53 293 0.0 0.0 0.00 0.00 0.00 86 1013.6
20260508092521 53 200 1.0 5.0 0.00 0.00 0.00 86 1013.4
20260508091519 53 194 1.0 3.0 0.00 0.00 0.00 84 1013.5
20260508090520 53 203 1.0 3.0 0.00 0.00 0.00 84 1013.6
20260508085520 53 197 1.0 3.0 0.00 0.00 0.00 83 1013.6
20260508084520 54 199 0.0 2.0 0.00 0.00 0.00 82 1013.7
20260508083521 54 194 2.0 5.0 0.00 0.00 0.00 82 1013.6
20260508082520 54 207 1.0 4.0 0.00 0.00 0.00 81 1013.7
20260508081520 54 199 2.0 7.0 0.00 0.00 0.00 80 1013.7
20260508080520 54 200 3.0 7.0 0.00 0.00 0.00 79 1013.8
20260508075520 55 180 0.0 3.0 0.00 0.00 0.00 78 1014.1
20260508074521 55 193 2.0 5.0 0.00 0.00 0.00 76 1014.0
20260508073520 55 200 5.0 8.0 0.00 0.00 0.00 74 1014.0
20260508072520 55 202 3.0 6.0 0.00 0.00 0.00 72 1014.3
20260508071521 55 194 2.0 4.0 0.00 0.00 0.00 71 1014.5
20260508070523 55 201 3.0 5.0 0.00 0.00 0.00 70 1014.4
20260508065522 55 203 4.0 7.0 0.00 0.00 0.00 69 1014.5
20260508064522 55 201 2.0 4.0 0.00 0.00 0.00 68 1014.6
20260508063521 56 203 2.0 5.0 0.00 0.00 0.00 67 1014.6
20260508062524 56 201 3.0 5.0 0.00 0.00 0.00 66 1014.6
20260508061523 57 197 1.0 4.0 0.00 0.00 0.00 64 1014.8
20260508060539 57 207 1.0 4.0 0.00 0.00 0.00 64 1015.0
20260508055521 57 196 2.0 6.0 0.00 0.00 0.00 62 1015.0
20260508054519 57 200 4.0 7.0 0.00 0.00 0.00 62 1015.0
20260508053519 57 198 3.0 6.0 0.00 0.00 0.00 63 1014.9
20260508052540 58 200 2.0 4.0 0.00 0.00 0.00 62 1015.0
20260508051519 58 199 3.0 5.0 0.00 0.00 0.00 61 1014.9
20260508050521 59 200 3.0 5.0 0.00 0.00 0.00 59 1014.8
20260508045520 59 202 2.0 5.0 0.00 0.00 0.00 58 1014.7
20260508044520 60 201 4.0 6.0 0.00 0.00 0.00 57 1014.8
20260508043524 61 200 2.0 5.0 0.00 0.00 0.00 56 1015.1
20260508042520 61 201 3.0 7.0 0.00 0.01 0.00 54 1015.1
20260508041520 62 194 4.0 7.0 0.00 0.02 0.00 53 1015.0
20260508040520 62 195 5.0 10.0 0.00 0.02 0.00 53 1014.9
20260508035521 63 193 5.0 8.0 0.00 0.03 0.00 52 1015.1
20260508034521 63 192 4.0 7.0 0.00 0.07 0.00 52 1015.1
20260508033520 64 191 5.0 9.0 0.00 0.09 0.00 51 1015.1
20260508032522 64 190 5.0 10.0 0.00 0.13 0.00 50 1014.8
20260508031542 65 192 6.0 9.0 0.00 0.18 0.00 50 1014.7
20260508030519 65 189 5.0 10.0 0.00 0.23 0.00 49 1014.7
20260508025520 66 187 6.0 10.0 0.00 0.28 0.00 49 1014.5
20260508024519 66 186 5.0 9.0 0.00 0.31 0.00 48 1014.4
20260508023519 67 183 6.0 12.0 0.00 0.31 0.00 46 1014.3
20260508022543 68 184 6.0 12.0 0.00 0.31 0.00 42 1014.2
20260508021540 69 191 4.0 7.0 0.00 0.31 0.00 39 1013.9
20260508020520 69 190 4.0 7.0 0.00 0.31 0.00 38 1013.9
20260508015519 70 188 3.0 6.0 0.00 0.31 0.00 37 1013.8
20260508014520 71 185 3.0 5.0 0.00 0.31 0.00 36 1013.8
20260508013522 72 178 4.0 6.0 0.00 0.31 0.00 35 1013.7
20260508012521 73 180 4.0 8.0 0.00 0.31 0.00 33 1013.6
20260508011521 74 189 3.0 7.0 0.00 0.31 0.00 33 1013.6
20260508010521 75 175 4.0 9.0 0.00 0.31 0.00 32 1013.6
20260508005521 75 186 5.0 9.0 0.00 0.31 0.00 31 1013.6
20260508004601 75 183 4.0 10.0 0.00 0.31 0.00 31 1013.6
20260508003521 76 186 6.0 10.0 0.00 0.31 0.00 31 1013.7
20260508002521 76 183 5.0 9.0 0.00 0.31 0.00 31 1013.8
20260508001521 77 168 2.0 6.0 0.00 0.31 0.00 30 1013.8
20260508000522 77 178 3.0 7.0 0.00 0.31 0.00 30 1013.9
20260507235521 77 181 4.0 8.0 0.00 0.31 0.00 30 1013.9
20260507234518 77 190 4.0 10.0 0.00 0.31 0.00 30 1013.9
20260507233520 78 190 5.0 11.0 0.00 0.31 0.00 30 1013.9
20260507232519 78 154 2.0 6.0 0.00 0.31 0.00 29 1013.9
20260507231539 78 184 4.0 8.0 0.00 0.31 0.00 29 1014.0
20260507230519 78 183 3.0 9.0 0.00 0.31 0.00 29 1014.0
20260507225542 78 182 2.0 5.0 0.00 0.31 0.00 29 1014.2
20260507224520 78 206 4.0 9.0 0.00 0.31 0.00 29 1014.4
20260507223521 77 185 3.0 8.0 0.00 0.31 0.00 29 1014.5
20260507222519 78 208 4.0 10.0 0.00 0.31 0.00 29 1014.7
20260507221520 78 173 3.0 8.0 0.00 0.31 0.00 30 1014.7
20260507220521 78 175 2.0 7.0 0.00 0.31 0.00 30 1014.7
20260507215521 77 135 2.0 6.0 0.00 0.31 0.00 29 1014.7
20260507214521 77 204 3.0 9.0 0.00 0.31 0.00 30 1014.8
20260507213520 77 178 1.0 4.0 0.00 0.31 0.00 30 1014.9
20260507212521 77 103 2.0 5.0 0.00 0.31 0.00 30 1015.0
20260507211520 77 119 1.0 5.0 0.00 0.31 0.00 30 1015.3
20260507210522 76 182 2.0 7.0 0.00 0.31 0.00 30 1015.4
20260507205523 76 232 3.0 10.0 0.00 0.31 0.00 30 1015.6
20260507204523 76 102 1.0 4.0 0.00 0.31 0.00 31 1015.9
20260507203542 75 157 1.0 5.0 0.00 0.31 0.00 31 1016.0
20260507202538 74 100 1.0 4.0 0.00 0.31 0.00 32 1016.2
20260507201522 74 54 1.0 3.0 0.00 0.31 0.00 33 1016.3
20260507200519 73 103 2.0 5.0 0.00 0.31 0.00 35 1016.5
20260507195519 73 60 2.0 6.0 0.00 0.31 0.00 34 1016.7
20260507194519 73 200 2.0 8.0 0.00 0.31 0.00 34 1017.0
20260507193520 73 126 1.0 4.0 0.00 0.31 0.00 35 1017.1
20260507192539 72 214 2.0 8.0 0.00 0.31 0.00 35 1017.3
20260507191540 71 215 2.0 9.0 0.00 0.31 0.00 37 1017.4
20260507190520 70 23 2.0 6.0 0.00 0.31 0.00 38 1017.5
20260507185520 70 255 3.0 12.0 0.00 0.31 0.00 39 1017.7
20260507184540 69 2 2.0 6.0 0.00 0.31 0.00 39 1017.9
20260507183520 69 169 2.0 6.0 0.00 0.31 0.00 39 1018.0
20260507182542 67 167 2.0 5.0 0.00 0.31 0.00 41 1018.2
20260507181521 67 294 3.0 7.0 0.00 0.31 0.00 42 1018.4
20260507180521 67 199 2.0 9.0 0.00 0.31 0.00 41 1018.6
20260507175521 68 147 2.0 7.0 0.00 0.31 0.00 41 1018.9
20260507174541 66 285 1.0 5.0 0.00 0.31 0.00 42 1019.1
20260507173524 65 165 1.0 6.0 0.00 0.31 0.00 43 1019.3
20260507172519 64 213 3.0 7.0 0.00 0.31 0.00 45 1019.5
20260507171518 65 190 3.0 7.0 0.00 0.31 0.00 44 1019.6
20260507170518 64 192 2.0 8.0 0.00 0.31 0.00 45 1019.8